Current Version              Previous Version:    01  02  03  04  05  06  07  08  09  10  11  12  13  14  15  16  17  18  19  20  21  22  23  24  25  26  27  28  29  30  
   31  32  33  34  35  36  37  38  39  40  41  42  43  44  45  46  47  48  49  50  51  52  53  54  55  56  57  58  59  60  

[Printable]
189
ASUS44 KFWD 020210
RWRTX
NORTH TEXAS HOURLY WEATHER ROUNDUP
NATIONAL WEATHER SERVICE FORT WORTH TX
900 PM CDT FRI AUG 01 2014

NOTE: "FAIR" INDICATES FEW OR NO CLOUDS BELOW 12,000 FEET WITH NO
SIGNIFICANT WEATHER AND/OR OBSTRUCTIONS TO VISIBILITY.

TXZ118-119-020300-
DALLAS/FORT WORTH METROPLEX

CITY           SKY/WX    TMP DP  RH WIND       PRES   REMARKS
DFW AIRPORT    MOCLDY    76  65  68 NE8       30.02R
DALLAS LOVE    MOCLDY    76  66  71 E7        30.02S
FTW MEACHAM    CLEAR     77  65  66 NE8       30.02R
DAL-EXECUTIVE  PTCLDY    77  65  66 NE10      30.02R
FTW-ALLIANCE   PTCLDY    74  65  73 NE5       30.02R
FTW-NAS-JRB    PTCLDY    80  63  55 NE8       30.06R
ARLINGTON      MOCLDY    77  64  64 NE8       30.02R
GRAND PRAIRIE  PTCLDY    76  64  66 NE8       30.03S
LANCASTER      PTCLDY    73  64  73 NE3       30.03R
$$

TXZ091>094-102>105-117-120-121-131>134-020300-
NORTH CENTRAL TEXAS

CITY           SKY/WX    TMP DP  RH WIND       PRES   REMARKS
SHRMAN/DENISON PTCLDY    73  67  82 CALM      30.05S
GAINESVILLE    MOCLDY    72  67  83 E5        30.06S
BOWIE          PTCLDY    72  67  85 CALM      30.04S
BRIDGEPORT     CLEAR     74  61  63 E3        30.05R
DECATUR        CLEAR     72  64  74 E3        30.04S
DENTON         PTCLDY    74  66  76 E8        30.02S
MCKINNEY       CLOUDY    74  67  78 NE7       30.03S
GREENVILLE     CLOUDY    72  66  83 CALM      30.03S
ROCKWALL       CLOUDY    73  67  82 NE8       30.02S
TERRELL        CLOUDY    75  69  81 NE5       30.02S
WAXAHACHIE     CLOUDY    74  63  68 NE3       30.04R
CLEBURNE       CLEAR     75  68  78 E9G15     30.04R
GRANBURY       CLEAR     79  65  62 E5        30.04R
$$

TXZ083>090-098>101-113>116-127>130-139>142-154-155-020300-
WESTERN NORTH TEXAS

CITY           SKY/WX    TMP DP  RH WIND       PRES   REMARKS
WICHITA FALLS  PTCLDY    73  67  81 S7        30.03R
WF-KICKAPOO    PTCLDY    76  65  67 SE5       30.05R
VERNON         PTCLDY    80  62  53 CALM      30.06R
ABILENE        CLEAR     82  58  43 E9        30.04R
BRECKENRIDGE   CLEAR     81  58  45 E7        30.03R
GRAHAM         CLEAR     76  62  61 NE3       30.02S
MINERAL WELLS  CLEAR     77  64  64 E8        30.02R
STEPHENVILLE   CLEAR     77  61  58 NE7       30.06R
COMANCHE       CLEAR     77  60  56 E6        30.04R
BROWNWOOD      CLEAR     81  59  47 E8        30.03R
COLEMAN        CLEAR     81  56  42 E9        30.04R
BRADY          CLEAR     81  57  44 E7        30.04R
$$

TXZ143>147-156>162-174-175-020300-
CENTRAL TEXAS

CITY           SKY/WX    TMP DP  RH WIND       PRES   REMARKS
WACO           CLOUDY    78  66  66 E9        30.01R
WACO-TSTC      CLOUDY    77  66  69 NE8       30.01R
WACO-MCGREGOR  CLOUDY    79  63  57 NE10      30.03R
HILLSBORO      MOCLDY    75  65  70 NE8       30.03R
CORSICANA      CLOUDY    74  66  76 NE5       30.03R
MEXIA          CLOUDY    73  67  80 NE5       30.01R
HEARNE         PTCLDY    74  67  80 CALM      30.01R
CAMERON        CLOUDY    77  68  73 E5        30.01R
TEMPLE         CLOUDY    79  63  57 NE8       30.00R
KILLEEN        PTCLDY    79  64  61 NE9       30.01R
KILLEEN-SKYLRK CLOUDY    79  63  57 NE8       30.01S
FORT HOOD      MOCLDY    80  65  59 NE7       30.01S
GATESVILLE     CLEAR     79  64  61 E3        30.03S
HAMILTON       CLEAR     77  62  59 NE3       30.04R
LAMPASAS       CLEAR     78  68  71 E5        30.02R
$$

TXZ095>097-106>112-122>126-135>138-148>153-164>167-020300-
EAST TEXAS

CITY           SKY/WX    TMP DP  RH WIND       PRES   REMARKS
PARIS          CLOUDY    73  64  73 CALM      30.04S
SULPHUR SPRNGS CLOUDY    73  69  88 CALM      30.05S
CLARKSVILLE    CLOUDY    74  69  85 N5        30.03S
MOUNT PLEASANT CLOUDY    71  69  94 CALM      30.04R
GILMER         CLOUDY    72  72 100 N5        30.03S
MINEOLA        CLOUDY    73  70  88 CALM      30.03S
TYLER          CLOUDY    72  70  94 N3        30.01S
LONGVIEW       CLOUDY    72  68  88 CALM      30.00R
MARSHALL       CLOUDY    73  70  88 N5        30.02S
ATHENS         CLOUDY    72  68  88 CALM      30.01R
JACKSONVILLE   CLOUDY    71  68  91 CALM      30.04R
HENDERSON      CLOUDY    70  69  99 CALM      30.01S FOG
NACOGDOCHES    CLOUDY    70  70 100 NE5       30.01R
LUFKIN         CLOUDY    74  68  81 N5        29.99R
$$

SUPPLEMENTAL OBSERVATIONS (CENTRAL)

CITY           SKY/WX    TMP DP  RH WIND       PRES   REMARKS
CADDO GRASSLND   N/A     72  68  88 CALM        N/A
PAT MAYSE LAKE   N/A     72  66  83 N2          N/A
MCGREGOR         N/A     77  64  65 NE6         N/A
$$

SUPPLEMENTAL OBSERVATIONS (WEST)

CITY           SKY/WX    TMP DP  RH WIND       PRES   REMARKS
MILLERS CREEK    N/A     81  57  44 E7G15       N/A
LBJ GRASSLAND    N/A     73  63  68 E3          N/A
HAMBY            N/A     79  59  50 E6          N/A
IVIE RESERVOIR   N/A     81  54  39 NE6         N/A
COLORADO BEND    N/A    N/A N/A N/A E5          N/A
$$

SUPPLEMENTAL OBSERVATIONS (EAST)

CITY           SKY/WX    TMP DP  RH WIND       PRES   REMARKS
TEXARKANA        N/A     70  64  83 NE2         N/A
HENDERSON        N/A     70  66  88 CALM        N/A
LUFKIN           N/A     72  70  94 MISG        N/A
N SABINE NF      N/A     70  66  88 MISG        N/A
$$

SUPPLEMENTAL OBSERVATIONS ARE A COLLECTION OF AUTOMATED INSTRUMENTS
THAT ARE MAINTAINED BY A VARIETY OF FEDERAL AND STATE AGENCIES.
CERTAIN ELEMENTS...SUCH AS HUMIDITY VALUES AND SUSTAINED WIND
SPEEDS...MAY BE APPROXIMATED.